Terminal Aerodrome Forecast
Issued by NWS Atlanta, GA

Home | Current Version | Previous Version | Text Only | Print | Product List | Glossary On
Versions: 1 2 3 4 5 6 7 8 9 10 11 12 13 14 15 16 17 18 19 20 21 22 23 24 25 26 27 28 29 30 31 32 33 34 35 36 37 38 39 40 41
000
FTUS42 KFFC 190100 AAA
TAFATL
TAF AMD
KATL 190156Z 1902/2006 VRB04KT P6SM FEW060 SCT100
     FM190500 03003KT P6SM SCT025 SCT200
     FM191100 07005KT P6SM BKN008
     FM191400 09007KT P6SM SCT025
     FM191600 10009KT P6SM SCT040=

USA.gov is the U.S. government's official web portal to all federal, state and local government web resources and services.